| time (UTC) | temp C | wind direction | speed KPH | gust KPH | rain 1hr cm | rain 24hr cm | rain mn cm | humidity % | barometer mb |
| 20260504050536 | 10 | 167 | 0.0 | 8.0 | 0.00 | 0.00 | 0.00 | 53 | 1009.0 |
| 20260504045536 | 10 | 174 | 1.6 | 8.0 | 0.00 | 0.00 | 0.00 | 53 | 1009.0 |
| 20260504045035 | 10 | 160 | 1.6 | 4.8 | 0.00 | 0.00 | 0.00 | 54 | 1009.0 |
| 20260504044557 | 10 | 0 | 1.6 | 3.2 | 0.00 | 0.00 | 0.00 | 51 | 1009.1 |
| 20260504044037 | 10 | 167 | 0.0 | 8.0 | 0.00 | 0.00 | 0.00 | 51 | 1009.2 |
| 20260504043554 | 10 | 0 | 0.0 | 8.0 | 0.00 | 0.00 | 0.00 | 51 | 1009.1 |
| 20260504043043 | 11 | 157 | 1.6 | 8.0 | 0.00 | 0.00 | 0.00 | 49 | 1009.2 |
| 20260504042537 | 11 | 145 | 1.6 | 11.3 | 0.00 | 0.00 | 0.00 | 50 | 1009.2 |
| 20260504042038 | 11 | 153 | 1.6 | 11.3 | 0.00 | 0.00 | 0.00 | 49 | 1009.2 |
| 20260504041541 | 11 | 169 | 3.2 | 6.4 | 0.00 | 0.00 | 0.00 | 49 | 1009.1 |
| 20260504041036 | 11 | 0 | 1.6 | 8.0 | 0.00 | 0.00 | 0.00 | 49 | 1009.2 |
| 20260504040537 | 11 | 169 | 0.0 | 8.0 | 0.00 | 0.00 | 0.00 | 50 | 1009.2 |
| 20260504040045 | 10 | 139 | 1.6 | 8.0 | 0.00 | 0.00 | 0.00 | 50 | 1009.2 |
| 20260504035540 | 10 | 176 | 1.6 | 8.0 | 0.00 | 0.00 | 0.00 | 51 | 1009.3 |
| 20260504035036 | 10 | 143 | 0.0 | 4.8 | 0.00 | 0.00 | 0.00 | 52 | 1009.2 |
| 20260504034600 | 10 | 274 | 0.0 | 3.2 | 0.00 | 0.00 | 0.00 | 53 | 1009.3 |
| 20260504034036 | 10 | 0 | 0.0 | 3.2 | 0.00 | 0.00 | 0.00 | 52 | 1009.2 |
| 20260504033536 | 11 | 179 | 0.0 | 3.2 | 0.00 | 0.00 | 0.00 | 52 | 1009.2 |
| 20260504033044 | 11 | 0 | 0.0 | 4.8 | 0.00 | 0.00 | 0.00 | 52 | 1009.2 |
| 20260504032536 | 11 | 0 | 0.0 | 4.8 | 0.00 | 0.00 | 0.00 | 49 | 1009.3 |
| 20260504032037 | 11 | 153 | 0.0 | 6.4 | 0.00 | 0.00 | 0.00 | 50 | 1009.4 |
| 20260504031542 | 11 | 148 | 1.6 | 6.4 | 0.00 | 0.00 | 0.00 | 51 | 1009.5 |
| 20260504031035 | 11 | 120 | 0.0 | 1.6 | 0.00 | 0.00 | 0.00 | 50 | 1009.6 |
| 20260504030535 | 11 | 155 | 0.0 | 3.2 | 0.00 | 0.00 | 0.00 | 50 | 1009.6 |
| 20260504030044 | 11 | 0 | 0.0 | 4.8 | 0.00 | 0.00 | 0.00 | 48 | 1009.5 |
| 20260504025535 | 11 | 179 | 1.6 | 4.8 | 0.00 | 0.00 | 0.00 | 46 | 1009.5 |
| 20260504025036 | 11 | 155 | 0.0 | 3.2 | 0.00 | 0.00 | 0.00 | 46 | 1009.6 |
| 20260504024545 | 11 | 177 | 0.0 | 3.2 | 0.00 | 0.00 | 0.00 | 45 | 1009.7 |
| 20260504024037 | 11 | 149 | 1.6 | 3.2 | 0.00 | 0.00 | 0.00 | 44 | 1009.7 |
| 20260504023536 | 11 | 198 | 0.0 | 3.2 | 0.00 | 0.00 | 0.00 | 45 | 1009.6 |
| 20260504023040 | 12 | 195 | 1.6 | 3.2 | 0.00 | 0.00 | 0.00 | 43 | 1009.7 |
| 20260504022536 | 12 | 0 | 0.0 | 3.2 | 0.00 | 0.00 | 0.00 | 43 | 1009.7 |
| 20260504022037 | 12 | 0 | 0.0 | 4.8 | 0.00 | 0.00 | 0.00 | 44 | 1009.8 |
| 20260504021543 | 12 | 247 | 1.6 | 4.8 | 0.00 | 0.00 | 0.00 | 42 | 1009.8 |
| 20260504021037 | 12 | 0 | 0.0 | 3.2 | 0.00 | 0.00 | 0.00 | 43 | 1009.8 |
| 20260504020535 | 12 | 300 | 0.0 | 4.8 | 0.00 | 0.00 | 0.00 | 43 | 1009.8 |
| 20260504020042 | 12 | 266 | 1.6 | 4.8 | 0.00 | 0.00 | 0.00 | 41 | 1009.9 |
| 20260504015536 | 12 | 236 | 1.6 | 8.0 | 0.00 | 0.00 | 0.00 | 41 | 1009.9 |
| 20260504015036 | 12 | 281 | 1.6 | 8.0 | 0.00 | 0.00 | 0.00 | 41 | 1010.0 |
| 20260504014553 | 12 | 252 | 1.6 | 8.0 | 0.00 | 0.00 | 0.00 | 41 | 1010.0 |
| 20260504014036 | 12 | 205 | 1.6 | 8.0 | 0.00 | 0.00 | 0.00 | 41 | 1010.0 |
| 20260504013536 | 12 | 274 | 3.2 | 8.0 | 0.00 | 0.00 | 0.00 | 42 | 1010.1 |
| 20260504013047 | 12 | 286 | 3.2 | 8.0 | 0.00 | 0.00 | 0.00 | 41 | 1010.0 |
| 20260504012537 | 12 | 252 | 3.2 | 17.7 | 0.00 | 0.00 | 0.00 | 41 | 1010.0 |
| 20260504012036 | 12 | 233 | 3.2 | 17.7 | 0.00 | 0.00 | 0.00 | 40 | 1010.0 |
| 20260504011545 | 12 | 186 | 4.8 | 17.7 | 0.00 | 0.00 | 0.00 | 41 | 1009.9 |
| 20260504011035 | 12 | 205 | 1.6 | 9.7 | 0.00 | 0.00 | 0.00 | 41 | 1009.9 |
| 20260504010537 | 12 | 264 | 4.8 | 11.3 | 0.00 | 0.00 | 0.00 | 40 | 1009.9 |
| 20260504010045 | 12 | 211 | 3.2 | 12.9 | 0.00 | 0.00 | 0.00 | 40 | 1009.8 |
| 20260504005536 | 12 | 261 | 3.2 | 12.9 | 0.00 | 0.00 | 0.00 | 41 | 1009.8 |
| 20260504005036 | 12 | 198 | 4.8 | 20.9 | 0.00 | 0.00 | 0.00 | 40 | 1009.8 |
| 20260504004543 | 12 | 243 | 11.3 | 20.9 | 0.00 | 0.00 | 0.00 | 40 | 1009.8 |
| 20260504004036 | 12 | 293 | 11.3 | 27.4 | 0.00 | 0.00 | 0.00 | 38 | 1009.9 |
| 20260504003536 | 13 | 167 | 9.7 | 27.4 | 0.00 | 0.00 | 0.00 | 38 | 1009.8 |
| 20260504003052 | 12 | 243 | 8.0 | 16.1 | 0.00 | 0.00 | 0.00 | 39 | 1009.8 |
| 20260504002536 | 12 | 277 | 6.4 | 16.1 | 0.00 | 0.00 | 0.00 | 40 | 1009.7 |
| 20260504002035 | 12 | 261 | 3.2 | 16.1 | 0.00 | 0.00 | 0.00 | 41 | 1009.6 |
| 20260504001542 | 12 | 244 | 4.8 | 16.1 | 0.00 | 0.00 | 0.00 | 40 | 1009.5 |
| 20260504001037 | 12 | 286 | 4.8 | 11.3 | 0.00 | 0.00 | 0.00 | 40 | 1009.2 |
| 20260504000536 | 12 | 297 | 4.8 | 11.3 | 0.00 | 0.00 | 0.00 | 41 | 1009.1 |
| 20260504000046 | 12 | 261 | 6.4 | 11.3 | 0.00 | 0.00 | 0.00 | 40 | 1009.1 |
| 20260503235538 | 12 | 250 | 0.0 | 6.4 | 0.00 | 0.00 | 0.00 | 39 | 1009.1 |
| 20260503235036 | 12 | 271 | 1.6 | 8.0 | 0.00 | 0.00 | 0.00 | 38 | 1008.9 |
| 20260503234548 | 12 | 164 | 0.0 | 8.0 | 0.00 | 0.00 | 0.00 | 39 | 1008.9 |
| 20260503234036 | 12 | 184 | 3.2 | 8.0 | 0.00 | 0.00 | 0.00 | 39 | 1008.9 |
| 20260503233536 | 13 | 238 | 3.2 | 8.0 | 0.00 | 0.00 | 0.00 | 39 | 1008.8 |
| 20260503233042 | 13 | 323 | 3.2 | 14.5 | 0.00 | 0.00 | 0.00 | 39 | 1008.9 |
| 20260503232535 | 13 | 266 | 4.8 | 16.1 | 0.00 | 0.00 | 0.00 | 38 | 1008.8 |
| 20260503232035 | 13 | 197 | 8.0 | 22.5 | 0.00 | 0.00 | 0.00 | 39 | 1008.9 |
| 20260503231544 | 13 | 259 | 9.7 | 27.4 | 0.00 | 0.00 | 0.00 | 38 | 1008.9 |
| 20260503231036 | 13 | 333 | 12.9 | 27.4 | 0.00 | 0.00 | 0.00 | 38 | 1009.1 |
| 20260503230537 | 13 | 307 | 11.3 | 27.4 | 0.00 | 0.00 | 0.00 | 38 | 1009.1 |
| 20260503230044 | 13 | 229 | 9.7 | 24.1 | 0.00 | 0.00 | 0.00 | 40 | 1009.0 |
| 20260503225535 | 13 | 322 | 9.7 | 24.1 | 0.00 | 0.00 | 0.00 | 40 | 1009.0 |
| 20260503225037 | 12 | 278 | 9.7 | 22.5 | 0.00 | 0.00 | 0.00 | 39 | 1008.8 |
| 20260503224546 | 12 | 341 | 1.6 | 6.4 | 0.00 | 0.00 | 0.00 | 44 | 1008.9 |
| 20260503224036 | 13 | 0 | 0.0 | 9.7 | 0.00 | 0.00 | 0.00 | 45 | 1008.7 |
| 20260503223536 | 13 | 282 | 3.2 | 9.7 | 0.00 | 0.00 | 0.00 | 41 | 1008.8 |
| 20260503223038 | 13 | 243 | 1.6 | 12.9 | 0.00 | 0.00 | 0.00 | 41 | 1008.7 |
| 20260503222535 | 13 | 232 | 1.6 | 12.9 | 0.00 | 0.00 | 0.00 | 41 | 1008.7 |
| 20260503222035 | 13 | 283 | 3.2 | 9.7 | 0.00 | 0.00 | 0.00 | 41 | 1008.6 |
| 20260503221543 | 13 | 160 | 3.2 | 8.0 | 0.00 | 0.00 | 0.00 | 41 | 1008.7 |
| 20260503221038 | 13 | 163 | 4.8 | 11.3 | 0.00 | 0.00 | 0.00 | 42 | 1008.7 |
| 20260503220538 | 13 | 161 | 4.8 | 12.9 | 0.00 | 0.00 | 0.00 | 43 | 1008.8 |
| 20260503220049 | 13 | 197 | 3.2 | 12.9 | 0.00 | 0.00 | 0.00 | 41 | 1008.9 |
| 20260503215538 | 13 | 285 | 4.8 | 12.9 | 0.00 | 0.00 | 0.00 | 42 | 1008.8 |
| 20260503215039 | 13 | 266 | 6.4 | 19.3 | 0.00 | 0.00 | 0.00 | 42 | 1008.9 |
| 20260503214549 | 13 | 261 | 6.4 | 19.3 | 0.00 | 0.00 | 0.00 | 42 | 1008.9 |
| 20260503214038 | 13 | 283 | 8.0 | 19.3 | 0.00 | 0.00 | 0.00 | 42 | 1008.9 |
| 20260503213537 | 13 | 223 | 6.4 | 19.3 | 0.00 | 0.00 | 0.00 | 42 | 1008.8 |
| 20260503213056 | 13 | 245 | 8.0 | 17.7 | 0.00 | 0.00 | 0.00 | 40 | 1008.8 |
| 20260503212539 | 13 | 198 | 4.8 | 17.7 | 0.00 | 0.00 | 0.00 | 42 | 1008.9 |
| 20260503212038 | 13 | 240 | 8.0 | 17.7 | 0.00 | 0.00 | 0.00 | 42 | 1008.8 |
| 20260503211550 | 13 | 271 | 3.2 | 12.9 | 0.00 | 0.00 | 0.00 | 42 | 1008.8 |
| 20260503211038 | 13 | 254 | 6.4 | 12.9 | 0.00 | 0.00 | 0.00 | 41 | 1008.8 |
| 20260503210538 | 13 | 255 | 1.6 | 9.7 | 0.00 | 0.00 | 0.00 | 42 | 1008.9 |
| 20260503210047 | 13 | 239 | 1.6 | 6.4 | 0.00 | 0.00 | 0.00 | 41 | 1008.9 |
| 20260503205538 | 12 | 219 | 3.2 | 6.4 | 0.00 | 0.00 | 0.00 | 42 | 1009.0 |
| 20260503205038 | 12 | 274 | 3.2 | 6.4 | 0.00 | 0.00 | 0.00 | 42 | 1009.1 |
| 20260503204542 | 12 | 278 | 3.2 | 6.4 | 0.00 | 0.00 | 0.00 | 44 | 1009.2 |
| 20260503204040 | 12 | 224 | 1.6 | 8.0 | 0.00 | 0.00 | 0.00 | 43 | 1009.2 |
| 20260503203538 | 12 | 227 | 1.6 | 8.0 | 0.00 | 0.00 | 0.00 | 44 | 1009.3 |
| 20260503203041 | 12 | 216 | 3.2 | 9.7 | 0.00 | 0.00 | 0.00 | 44 | 1009.4 |
| 20260503202537 | 12 | 196 | 4.8 | 11.3 | 0.00 | 0.00 | 0.00 | 44 | 1009.5 |
| 20260503202037 | 12 | 225 | 4.8 | 11.3 | 0.00 | 0.00 | 0.00 | 43 | 1009.5 |
| 20260503201546 | 12 | 264 | 6.4 | 12.9 | 0.00 | 0.00 | 0.00 | 45 | 1009.6 |
| 20260503201038 | 12 | 298 | 6.4 | 12.9 | 0.00 | 0.00 | 0.00 | 44 | 1009.6 |
| 20260503200542 | 12 | 281 | 6.4 | 12.9 | 0.00 | 0.00 | 0.00 | 43 | 1009.7 |
| 20260503200050 | 12 | 292 | 4.8 | 11.3 | 0.00 | 0.00 | 0.00 | 45 | 1009.7 |
| 20260503195538 | 12 | 286 | 4.8 | 12.9 | 0.00 | 0.00 | 0.00 | 46 | 1009.8 |
| 20260503195038 | 12 | 302 | 4.8 | 16.1 | 0.00 | 0.00 | 0.00 | 45 | 1009.9 |
| 20260503194549 | 12 | 291 | 4.8 | 16.1 | 0.00 | 0.00 | 0.00 | 47 | 1009.9 |
| 20260503194038 | 11 | 175 | 4.8 | 11.3 | 0.00 | 0.00 | 0.00 | 46 | 1009.9 |
| 20260503193538 | 11 | 234 | 4.8 | 17.7 | 0.00 | 0.00 | 0.00 | 45 | 1010.0 |
| 20260503193047 | 12 | 262 | 8.0 | 17.7 | 0.00 | 0.00 | 0.00 | 43 | 1010.1 |
| 20260503192537 | 12 | 309 | 4.8 | 19.3 | 0.00 | 0.00 | 0.00 | 45 | 1010.0 |
| 20260503192037 | 12 | 340 | 8.0 | 19.3 | 0.00 | 0.00 | 0.00 | 43 | 1010.1 |
| 20260503191551 | 11 | 283 | 9.7 | 19.3 | 0.00 | 0.00 | 0.00 | 43 | 1010.2 |
| 20260503191035 | 11 | 266 | 6.4 | 14.5 | 0.00 | 0.00 | 0.00 | 44 | 1010.2 |
| 20260503190535 | 11 | 303 | 6.4 | 16.1 | 0.00 | 0.00 | 0.00 | 43 | 1010.3 |
| 20260503190051 | 11 | 28 | 6.4 | 22.5 | 0.00 | 0.00 | 0.00 | 42 | 1010.4 |
| 20260503185535 | 11 | 167 | 8.0 | 22.5 | 0.00 | 0.00 | 0.00 | 44 | 1010.3 |
| 20260503185035 | 11 | 281 | 9.7 | 22.5 | 0.00 | 0.00 | 0.00 | 43 | 1010.3 |
| 20260503184603 | 11 | 229 | 4.8 | 14.5 | 0.00 | 0.00 | 0.00 | 44 | 1010.2 |
| 20260503184035 | 11 | 326 | 6.4 | 12.9 | 0.00 | 0.00 | 0.00 | 45 | 1010.3 |
| 20260503183536 | 11 | 295 | 4.8 | 14.5 | 0.00 | 0.00 | 0.00 | 45 | 1010.5 |
| 20260503183056 | 11 | 295 | 6.4 | 14.5 | 0.00 | 0.00 | 0.00 | 46 | 1010.6 |
| 20260503182536 | 11 | 270 | 4.8 | 9.7 | 0.00 | 0.00 | 0.00 | 45 | 1010.4 |
| 20260503182035 | 11 | 298 | 3.2 | 16.1 | 0.00 | 0.00 | 0.00 | 44 | 1010.6 |
| 20260503181543 | 11 | 325 | 4.8 | 16.1 | 0.00 | 0.00 | 0.00 | 44 | 1010.5 |
| 20260503181036 | 11 | 220 | 4.8 | 12.9 | 0.00 | 0.00 | 0.00 | 42 | 1010.4 |
| 20260503180536 | 11 | 260 | 3.2 | 9.7 | 0.00 | 0.00 | 0.00 | 41 | 1010.5 |
| 20260503180044 | 11 | 286 | 4.8 | 9.7 | 0.00 | 0.00 | 0.00 | 39 | 1010.7 |
| 20260503175538 | 11 | 262 | 3.2 | 11.3 | 0.00 | 0.00 | 0.00 | 40 | 1010.7 |
| 20260503175035 | 11 | 297 | 4.8 | 11.3 | 0.00 | 0.00 | 0.00 | 41 | 1010.8 |
| 20260503174541 | 11 | 289 | 4.8 | 11.3 | 0.00 | 0.00 | 0.00 | 38 | 1010.7 |
| 20260503174035 | 11 | 0 | 1.6 | 9.7 | 0.00 | 0.00 | 0.00 | 40 | 1010.8 |
| 20260503173535 | 11 | 311 | 3.2 | 8.0 | 0.00 | 0.00 | 0.00 | 42 | 1011.1 |
| 20260503173056 | 11 | 30 | 3.2 | 8.0 | 0.00 | 0.00 | 0.00 | 40 | 1011.2 |
| 20260503172538 | 11 | 330 | 1.6 | 9.7 | 0.00 | 0.00 | 0.00 | 42 | 1011.1 |
| 20260503172035 | 11 | 303 | 3.2 | 9.7 | 0.00 | 0.00 | 0.00 | 41 | 1011.1 |
| 20260503171543 | 11 | 353 | 4.8 | 12.9 | 0.00 | 0.00 | 0.00 | 42 | 1011.3 |
| 20260503171036 | 11 | 13 | 4.8 | 12.9 | 0.00 | 0.00 | 0.00 | 41 | 1011.3 |
| 20260503170536 | 11 | 268 | 4.8 | 12.9 | 0.00 | 0.00 | 0.00 | 41 | 1011.3 |
| 20260503150537 | 8 | 350 | 4.8 | 17.7 | 0.00 | 0.00 | 0.00 | 49 | 1012.7 |
| 20260503131036 | 6 | 0 | 3.2 | 9.7 | 0.00 | 0.00 | 0.00 | 58 | 1013.4 |
| 20260503130536 | 6 | 303 | 3.2 | 9.7 | 0.00 | 0.00 | 0.00 | 59 | 1013.4 |
| 20260503110537 | 1 | 273 | 0.0 | 3.2 | 0.00 | 0.00 | 0.00 | 83 | 1013.2 |
| 20260503081610 | 2 | 0 | 0.0 | 0.0 | 0.00 | 0.00 | 0.00 | 80 | 1012.7 |
| 20260503081037 | 2 | 148 | 0.0 | 0.0 | 0.00 | 0.00 | 0.00 | 80 | 1012.8 |
| 20260503080537 | 2 | 0 | 0.0 | 0.0 | 0.00 | 0.00 | 0.00 | 80 | 1012.5 |
| 20260503072536 | 3 | 0 | 0.0 | 1.6 | 0.00 | 0.00 | 0.00 | 79 | 1012.4 |
| 20260503072037 | 2 | 124 | 0.0 | 1.6 | 0.00 | 0.00 | 0.00 | 78 | 1012.4 |
| 20260503071544 | 2 | 146 | 0.0 | 1.6 | 0.00 | 0.00 | 0.00 | 79 | 1012.4 |
| 20260503071035 | 3 | 0 | 0.0 | 1.6 | 0.00 | 0.00 | 0.00 | 79 | 1012.5 |
| 20260503070536 | 3 | 0 | 0.0 | 0.0 | 0.00 | 0.00 | 0.00 | 80 | 1012.4 |
| 20260503055038 | 3 | 0 | 0.0 | 3.2 | 0.00 | 0.00 | 0.00 | 73 | 1012.6 |
| 20260503054551 | 3 | 264 | 0.0 | 3.2 | 0.00 | 0.00 | 0.00 | 73 | 1012.7 |
| 20260503054036 | 3 | 0 | 0.0 | 3.2 | 0.00 | 0.00 | 0.00 | 73 | 1012.8 |
| 20260503053538 | 3 | 0 | 0.0 | 0.0 | 0.00 | 0.00 | 0.00 | 74 | 1012.8 |
| 20260503053042 | 3 | 0 | 0.0 | 1.6 | 0.00 | 0.00 | 0.00 | 73 | 1012.9 |